Weather History for Plant City, FL

Change the Weather History Date:

Wednesday, May 15, 2013

  Actual Average Record
Temperature  
Mean Temperature 72 °F -  
Max Temperature 87 °F 90 °F 99 °F (1984)
Min Temperature 57 °F 64 °F 50 °F (1931)
Cooling Degree Days 7    
Growing Degree Days 22 (Base 50)    
Moisture  
Dew Point 54 °F    
Average Humidity 49    
Maximum Humidity 100    
Minimum Humidity 25    
Precipitation  
Precipitation 0.00 in - - ()
Sea Level Pressure  
Sea Level Pressure 30.18 in    
Wind  
Wind Speed 2 mph (ESE)    
Max Wind Speed 10 mph    
Max Gust Speed 16 mph    
Visibility 10 miles    
Events      
Averages and records for this station are not official NWS values.
T = Trace of Precipitation, MM = Missing Value Source: NWS Daily Summary

Daily Weather History Graph

Daily Weather History Graph

Search for Another Location

Airport:

Trip Planner

Search our weather history database for the weather conditions in past years. The results will help you decide how hot, cold, wet, or windy it might be!

Date:

Astronomy

May. 15, 2013 Rise Set
Actual Time 6:38 AM EDT 8:11 PM EDT
Civil Twilight 6:13 AM EDT 8:37 PM EDT
Nautical Twilight 5:42 AM EDT 9:07 PM EDT
Astronomical Twilight 5:10 AM EDT 9:39 PM EDT
Moon 11:08 AM EDT (5/15) 12:00 AM EDT (5/15)
Length of Visible Light 14h 23m
Length of Day
13h 32m
Waxing Crescent, 26% of the Moon is Illuminated
May 15
Waxing Crescent
May 18
First Quarter
May 25
Full
May 31
Last Quarter
Jun 8
New

Hourly Weather History & Observations

Time (EDT) Temp. Heat Index Dew Point Humidity Pressure Visibility Wind Dir Wind Speed Gust Speed Precip Events Conditions
12:15 AM 66.2 °F - 57.2 °F 73% 30.22 in 10.0 mi Calm Calm - N/A   Clear
12:35 AM 66.2 °F - 57.2 °F 73% 30.22 in 10.0 mi Calm Calm - N/A   Clear
12:55 AM 64.4 °F - 57.2 °F 77% 30.22 in 10.0 mi Calm Calm - N/A   Clear
1:15 AM 64.4 °F - 57.2 °F 77% 30.22 in 10.0 mi Calm Calm - N/A   Clear
1:35 AM 64.4 °F - 57.2 °F 77% 30.22 in 10.0 mi ENE 3.5 mph - N/A   Clear
1:55 AM 64.4 °F - 59.0 °F 83% 30.22 in 10.0 mi Calm Calm - N/A   Clear
2:15 AM 64.4 °F - 57.2 °F 77% 30.21 in 10.0 mi Calm Calm - N/A   Clear
2:35 AM 62.6 °F - 59.0 °F 88% 30.21 in 10.0 mi Calm Calm - N/A   Clear
2:55 AM 62.6 °F - 59.0 °F 88% 30.21 in 10.0 mi Calm Calm - N/A   Clear
3:15 AM 60.8 °F - 57.2 °F 88% 30.21 in 10.0 mi Calm Calm - N/A   Clear
3:35 AM 60.8 °F - 60.8 °F 100% 30.20 in 10.0 mi Calm Calm - N/A   Clear
3:55 AM 60.8 °F - - N/A% 30.20 in 10.0 mi Calm Calm - N/A   Clear
4:15 AM 59.0 °F - - N/A% 30.20 in 10.0 mi Calm Calm - N/A   Clear
4:35 AM 59.0 °F - - N/A% 30.20 in 10.0 mi Calm Calm - N/A   Clear
4:55 AM 59.0 °F - - N/A% 30.20 in 10.0 mi Calm Calm - N/A   Clear
5:15 AM 59.0 °F - - N/A% 30.20 in 10.0 mi Calm Calm - N/A   Clear
5:35 AM 59.0 °F - - N/A% 30.20 in 10.0 mi Calm Calm - N/A   Clear
5:55 AM 59.0 °F - - N/A% 30.20 in 10.0 mi Calm Calm - N/A   Clear
6:15 AM 57.2 °F - - N/A% 30.21 in 10.0 mi Calm Calm - N/A   Clear
6:35 AM 57.2 °F - - N/A% 30.21 in 10.0 mi Calm Calm - N/A   Clear
6:55 AM 57.2 °F - - N/A% 30.22 in 3.0 mi Calm Calm - N/A   Clear
7:15 AM 59.0 °F - - N/A% 30.22 in 7.0 mi Calm Calm - N/A   Clear
7:35 AM 60.8 °F - - N/A% 30.22 in 7.0 mi Calm Calm - N/A   Clear
7:55 AM 64.4 °F - - N/A% 30.22 in 7.0 mi Calm Calm - N/A   Clear
8:15 AM 68.0 °F - 68.0 °F 100% 30.23 in 10.0 mi Calm Calm - N/A   Clear
8:35 AM 71.6 °F - 62.6 °F 73% 30.23 in 10.0 mi ENE 3.5 mph - N/A   Clear
8:55 AM 73.4 °F - 60.8 °F 65% 30.24 in 10.0 mi East 3.5 mph - N/A   Clear
9:15 AM 75.2 °F - 59.0 °F 57% 30.25 in 10.0 mi Calm Calm - N/A   Clear
9:35 AM 77.0 °F - 57.2 °F 50% 30.25 in 10.0 mi ESE 4.6 mph - N/A   Clear
9:55 AM 77.0 °F - 55.4 °F 47% 30.25 in 10.0 mi ESE 5.8 mph - N/A   Clear
10:15 AM 77.0 °F - 55.4 °F 47% 30.25 in 10.0 mi ESE 4.6 mph - N/A   Clear
10:35 AM 78.8 °F - 53.6 °F 42% 30.24 in 10.0 mi Calm Calm - N/A   Clear
10:55 AM 78.8 °F - 51.8 °F 39% 30.25 in 10.0 mi ESE 3.5 mph - N/A   Clear
11:15 AM 80.6 °F - 51.8 °F 37% 30.24 in 10.0 mi SE 6.9 mph - N/A   Clear
11:35 AM 80.6 °F - 51.8 °F 37% 30.24 in 10.0 mi ESE 6.9 mph - N/A   Clear
11:55 AM 82.4 °F - 48.2 °F 30% 30.23 in 10.0 mi ENE 4.6 mph - N/A   Clear
12:15 PM 82.4 °F - 50.0 °F 32% 30.23 in 10.0 mi ESE 6.9 mph - N/A   Clear
12:35 PM 82.4 °F - 48.2 °F 30% 30.23 in 10.0 mi ENE 6.9 mph - N/A   Clear
12:55 PM 84.2 °F - 48.2 °F 29% 30.22 in 10.0 mi East 8.1 mph - N/A   Clear
1:15 PM 82.4 °F - 48.2 °F 30% 30.21 in 10.0 mi ESE 4.6 mph - N/A   Clear
1:35 PM 84.2 °F - 50.0 °F 30% 30.20 in 10.0 mi SSE 8.1 mph - N/A   Clear
1:55 PM 86.0 °F - 48.2 °F 27% 30.20 in 10.0 mi NE 8.1 mph - N/A   Clear
2:15 PM 86.0 °F - 46.4 °F 25% 30.19 in 10.0 mi Calm Calm - N/A   Clear
2:35 PM 86.0 °F - 48.2 °F 27% 30.18 in 10.0 mi NNE 5.8 mph - N/A   Clear
2:55 PM 86.0 °F - 48.2 °F 27% 30.17 in 10.0 mi East 8.1 mph - N/A   Clear
3:15 PM 86.0 °F - 48.2 °F 27% 30.16 in 10.0 mi ENE 10.4 mph - N/A   Clear
3:35 PM 86.0 °F - 48.2 °F 27% 30.16 in 10.0 mi ESE 6.9 mph - N/A   Scattered Clouds
3:55 PM 86.0 °F - 48.2 °F 27% 30.15 in 10.0 mi ENE 3.5 mph - N/A   Clear
4:15 PM 86.0 °F - 48.2 °F 27% 30.14 in 10.0 mi SSE 8.1 mph - N/A   Scattered Clouds
4:35 PM 87.8 °F - 50.0 °F 27% 30.14 in 10.0 mi ESE 6.9 mph - N/A   Scattered Clouds
4:55 PM 87.8 °F - 50.0 °F 27% 30.13 in 10.0 mi ESE 4.6 mph - N/A   Scattered Clouds
5:15 PM 86.0 °F - 50.0 °F 29% 30.12 in 10.0 mi East 3.5 mph - N/A   Scattered Clouds
5:35 PM 86.0 °F - 50.0 °F 29% 30.12 in 10.0 mi ESE 9.2 mph - N/A   Scattered Clouds
5:55 PM 86.0 °F - 51.8 °F 31% 30.12 in 10.0 mi SE 8.1 mph 16.1 mph N/A   Mostly Cloudy
6:15 PM 84.2 °F - 51.8 °F 33% 30.12 in 10.0 mi Calm Calm - N/A   Scattered Clouds
6:35 PM 86.0 °F - 50.0 °F 29% 30.11 in 10.0 mi East 4.6 mph - N/A   Scattered Clouds
6:55 PM 84.2 °F - 51.8 °F 33% 30.12 in 10.0 mi ENE 6.9 mph - N/A   Mostly Cloudy
7:15 PM 82.4 °F 81.4 °F 53.6 °F 37% 30.11 in 10.0 mi East 3.5 mph - N/A   Scattered Clouds
7:35 PM 82.4 °F 81.4 °F 53.6 °F 37% 30.11 in 10.0 mi ESE 4.6 mph - N/A   Mostly Cloudy
7:55 PM 80.6 °F 80.3 °F 53.6 °F 39% 30.11 in 10.0 mi ESE 5.8 mph - N/A   Scattered Clouds
8:15 PM 78.8 °F - 53.6 °F 42% 30.11 in 10.0 mi ESE 6.9 mph - N/A   Clear
8:35 PM 78.8 °F - 53.6 °F 42% 30.11 in 10.0 mi ESE 6.9 mph - N/A   Clear
8:55 PM 77.0 °F - 55.4 °F 47% 30.12 in 10.0 mi ESE 5.8 mph - N/A   Clear
9:15 PM 77.0 °F - 55.4 °F 47% 30.12 in 10.0 mi ESE 4.6 mph - N/A   Clear
9:35 PM 75.2 °F - 57.2 °F 53% 30.13 in 10.0 mi ESE 4.6 mph - N/A   Clear
9:55 PM 75.2 °F - 57.2 °F 53% 30.13 in 10.0 mi ESE 5.8 mph - N/A   Clear
10:15 PM 73.4 °F - 57.2 °F 57% 30.14 in 10.0 mi ESE 5.8 mph - N/A   Clear
10:35 PM 73.4 °F - 59.0 °F 61% 30.14 in 10.0 mi ESE 3.5 mph - N/A   Clear
10:55 PM 73.4 °F - 59.0 °F 61% 30.15 in 10.0 mi SE 4.6 mph - N/A   Clear
11:15 PM 71.6 °F - 59.0 °F 64% 30.14 in 10.0 mi SE 8.1 mph - N/A   Clear
11:35 PM 71.6 °F - 59.0 °F 64% 30.14 in 10.0 mi ESE 6.9 mph - N/A   Clear
11:55 PM 71.6 °F - 59.0 °F 64% 30.14 in 10.0 mi SE 8.1 mph - N/A   Clear